| time (UTC) | temp C | wind direction | speed KPH | gust KPH | rain 1hr cm | rain 24hr cm | rain mn cm | humidity % | barometer mb |
| 20260508004533 | 12 | 323 | 1.6 | 4.8 | 0.00 | 0.13 | 0.10 | 39 | 1006.2 |
| 20260508004019 | 12 | 346 | 1.6 | 4.8 | 0.00 | 0.13 | 0.10 | 39 | 1006.2 |
| 20260508003520 | 12 | 304 | 0.0 | 4.8 | 0.00 | 0.13 | 0.10 | 39 | 1006.1 |
| 20260508003051 | 12 | 0 | 0.0 | 4.8 | 0.00 | 0.13 | 0.10 | 38 | 1006.1 |
| 20260508002524 | 12 | 0 | 1.6 | 4.8 | 0.00 | 0.13 | 0.10 | 38 | 1006.0 |
| 20260508002022 | 12 | 0 | 0.0 | 4.8 | 0.00 | 0.13 | 0.10 | 38 | 1006.1 |
| 20260508001531 | 12 | 328 | 0.0 | 4.8 | 0.00 | 0.13 | 0.10 | 38 | 1006.0 |
| 20260508001016 | 13 | 279 | 0.0 | 6.4 | 0.00 | 0.13 | 0.10 | 37 | 1006.0 |
| 20260508000520 | 13 | 341 | 1.6 | 6.4 | 0.00 | 0.13 | 0.10 | 36 | 1006.0 |
| 20260508000041 | 13 | 352 | 1.6 | 6.4 | 0.00 | 0.13 | 0.10 | 35 | 1005.9 |
| 20260507235517 | 13 | 229 | 1.6 | 6.4 | 0.00 | 0.28 | 0.10 | 35 | 1005.9 |
| 20260507235016 | 13 | 0 | 0.0 | 6.4 | 0.00 | 0.28 | 0.10 | 35 | 1005.9 |
| 20260507234534 | 13 | 0 | 1.6 | 11.3 | 0.00 | 0.28 | 0.10 | 33 | 1005.8 |
| 20260507234016 | 13 | 329 | 3.2 | 11.3 | 0.00 | 0.28 | 0.10 | 34 | 1005.9 |
| 20260507233518 | 13 | 268 | 4.8 | 11.3 | 0.00 | 0.28 | 0.10 | 33 | 1005.8 |
| 20260507233036 | 13 | 329 | 1.6 | 9.7 | 0.00 | 0.28 | 0.10 | 34 | 1005.8 |
| 20260507232521 | 13 | 0 | 1.6 | 9.7 | 0.00 | 0.28 | 0.10 | 34 | 1005.7 |
| 20260507232019 | 14 | 315 | 1.6 | 9.7 | 0.00 | 0.28 | 0.10 | 33 | 1005.7 |
| 20260507231532 | 14 | 264 | 1.6 | 9.7 | 0.00 | 0.28 | 0.10 | 33 | 1005.6 |
| 20260507231021 | 14 | 325 | 1.6 | 8.0 | 0.00 | 0.28 | 0.10 | 34 | 1005.6 |
| 20260507230516 | 14 | 0 | 1.6 | 9.7 | 0.00 | 0.28 | 0.10 | 32 | 1005.5 |
| 20260507230038 | 15 | 290 | 1.6 | 11.3 | 0.00 | 0.28 | 0.10 | 33 | 1005.4 |
| 20260507225521 | 15 | 329 | 3.2 | 11.3 | 0.00 | 0.41 | 0.10 | 32 | 1005.4 |
| 20260507225020 | 15 | 298 | 3.2 | 16.1 | 0.00 | 0.41 | 0.10 | 32 | 1005.5 |
| 20260507224547 | 15 | 0 | 3.2 | 16.1 | 0.00 | 0.41 | 0.10 | 31 | 1005.4 |
| 20260507224018 | 15 | 302 | 1.6 | 9.7 | 0.00 | 0.41 | 0.10 | 31 | 1005.4 |
| 20260507223519 | 15 | 232 | 3.2 | 12.9 | 0.00 | 0.41 | 0.10 | 31 | 1005.3 |
| 20260507223034 | 15 | 300 | 1.6 | 12.9 | 0.00 | 0.41 | 0.10 | 32 | 1005.2 |
| 20260507222516 | 15 | 205 | 4.8 | 12.9 | 0.00 | 0.41 | 0.10 | 32 | 1005.3 |
| 20260507222017 | 16 | 351 | 4.8 | 12.9 | 0.00 | 0.41 | 0.10 | 30 | 1005.1 |
| 20260507221531 | 16 | 69 | 1.6 | 11.3 | 0.00 | 0.41 | 0.10 | 33 | 1005.1 |
| 20260507221020 | 16 | 277 | 1.6 | 11.3 | 0.00 | 0.41 | 0.10 | 32 | 1005.1 |
| 20260507220517 | 16 | 327 | 1.6 | 12.9 | 0.00 | 0.41 | 0.10 | 31 | 1005.1 |
| 20260507220034 | 16 | 315 | 4.8 | 14.5 | 0.00 | 0.41 | 0.10 | 30 | 1005.0 |
| 20260507215518 | 16 | 346 | 3.2 | 14.5 | 0.00 | 0.46 | 0.10 | 30 | 1005.0 |
| 20260507215015 | 16 | 277 | 6.4 | 14.5 | 0.00 | 0.46 | 0.10 | 30 | 1004.9 |
| 20260507214532 | 16 | 320 | 1.6 | 14.5 | 0.00 | 0.46 | 0.10 | 32 | 1004.8 |
| 20260507214016 | 16 | 0 | 3.2 | 14.5 | 0.00 | 0.46 | 0.10 | 31 | 1004.9 |
| 20260507213516 | 16 | 323 | 4.8 | 11.3 | 0.00 | 0.46 | 0.10 | 31 | 1004.9 |
| 20260507213034 | 16 | 296 | 1.6 | 19.3 | 0.00 | 0.46 | 0.10 | 33 | 1004.7 |
| 20260507212515 | 16 | 246 | 3.2 | 19.3 | 0.00 | 0.46 | 0.10 | 32 | 1004.7 |
| 20260507212016 | 16 | 207 | 6.4 | 19.3 | 0.00 | 0.46 | 0.10 | 30 | 1004.7 |
| 20260507211534 | 17 | 277 | 3.2 | 12.9 | 0.00 | 0.46 | 0.10 | 30 | 1004.8 |
| 20260507211015 | 17 | 0 | 4.8 | 12.9 | 0.00 | 0.46 | 0.10 | 31 | 1004.8 |
| 20260507210518 | 17 | 5 | 3.2 | 11.3 | 0.00 | 0.46 | 0.10 | 31 | 1004.8 |
| 20260507210038 | 17 | 279 | 1.6 | 11.3 | 0.00 | 0.46 | 0.10 | 31 | 1004.7 |
| 20260507205515 | 17 | 340 | 3.2 | 12.9 | 0.00 | 0.64 | 0.10 | 33 | 1004.8 |
| 20260507205017 | 17 | 320 | 4.8 | 12.9 | 0.00 | 0.64 | 0.10 | 31 | 1004.8 |
| 20260507204536 | 17 | 330 | 3.2 | 19.3 | 0.00 | 0.64 | 0.10 | 33 | 1004.8 |
| 20260507204016 | 17 | 271 | 4.8 | 20.9 | 0.00 | 0.64 | 0.10 | 31 | 1004.7 |
| 20260507203516 | 17 | 320 | 8.0 | 20.9 | 0.00 | 0.64 | 0.10 | 30 | 1004.7 |
| 20260507203032 | 17 | 343 | 4.8 | 20.9 | 0.00 | 0.64 | 0.10 | 30 | 1004.5 |
| 20260507202515 | 17 | 310 | 6.4 | 20.9 | 0.00 | 0.64 | 0.10 | 31 | 1004.6 |
| 20260507202017 | 17 | 338 | 3.2 | 20.9 | 0.00 | 0.64 | 0.10 | 30 | 1004.7 |
| 20260507201533 | 17 | 303 | 3.2 | 14.5 | 0.00 | 0.64 | 0.10 | 31 | 1004.6 |
| 20260507201018 | 17 | 331 | 4.8 | 17.7 | 0.00 | 0.64 | 0.10 | 32 | 1004.7 |
| 20260507200517 | 17 | 5 | 4.8 | 17.7 | 0.00 | 0.64 | 0.10 | 30 | 1004.8 |
| 20260507200035 | 17 | 300 | 4.8 | 17.7 | 0.00 | 0.64 | 0.10 | 30 | 1004.8 |
| 20260507195516 | 17 | 324 | 4.8 | 16.1 | 0.00 | 0.71 | 0.10 | 30 | 1004.9 |
| 20260507195017 | 17 | 286 | 3.2 | 19.3 | 0.00 | 0.71 | 0.10 | 31 | 1004.9 |
| 20260507194538 | 17 | 319 | 4.8 | 19.3 | 0.00 | 0.71 | 0.10 | 29 | 1005.0 |
| 20260507194018 | 17 | 322 | 3.2 | 16.1 | 0.00 | 0.71 | 0.10 | 29 | 1004.9 |
| 20260507193516 | 17 | 348 | 3.2 | 19.3 | 0.00 | 0.71 | 0.10 | 30 | 1005.1 |
| 20260507193035 | 17 | 247 | 4.8 | 19.3 | 0.00 | 0.71 | 0.10 | 31 | 1005.0 |
| 20260507192517 | 17 | 292 | 6.4 | 19.3 | 0.00 | 0.71 | 0.10 | 29 | 1005.2 |
| 20260507192017 | 17 | 217 | 4.8 | 19.3 | 0.00 | 0.71 | 0.10 | 31 | 1005.3 |
| 20260507191535 | 17 | 352 | 4.8 | 12.9 | 0.00 | 0.71 | 0.10 | 30 | 1005.2 |
| 20260507191016 | 17 | 346 | 3.2 | 14.5 | 0.00 | 0.71 | 0.10 | 29 | 1005.3 |
| 20260507190518 | 17 | 267 | 3.2 | 17.7 | 0.00 | 0.71 | 0.10 | 33 | 1005.4 |
| 20260507190036 | 17 | 340 | 3.2 | 17.7 | 0.00 | 0.71 | 0.10 | 32 | 1005.5 |
| 20260507185517 | 17 | 335 | 4.8 | 17.7 | 0.00 | 0.71 | 0.10 | 29 | 1005.5 |
| 20260507185017 | 17 | 281 | 4.8 | 12.9 | 0.00 | 0.71 | 0.10 | 29 | 1005.5 |
| 20260507184533 | 17 | 335 | 4.8 | 12.9 | 0.00 | 0.71 | 0.10 | 29 | 1005.4 |
| 20260507184018 | 17 | 323 | 3.2 | 19.3 | 0.00 | 0.71 | 0.10 | 30 | 1005.4 |
| 20260507183517 | 17 | 336 | 3.2 | 19.3 | 0.00 | 0.71 | 0.10 | 30 | 1005.5 |
| 20260507183031 | 17 | 276 | 6.4 | 19.3 | 0.00 | 0.71 | 0.10 | 30 | 1005.4 |
| 20260507182516 | 17 | 317 | 4.8 | 19.3 | 0.00 | 0.71 | 0.10 | 31 | 1005.5 |
| 20260507182017 | 17 | 254 | 6.4 | 19.3 | 0.00 | 0.71 | 0.10 | 30 | 1005.6 |
| 20260507181534 | 17 | 340 | 4.8 | 17.7 | 0.00 | 0.71 | 0.10 | 30 | 1005.7 |
| 20260507181018 | 17 | 317 | 3.2 | 12.9 | 0.00 | 0.71 | 0.10 | 32 | 1005.5 |
| 20260507180517 | 17 | 111 | 4.8 | 14.5 | 0.00 | 0.71 | 0.10 | 31 | 1005.6 |
| 20260507180030 | 17 | 248 | 3.2 | 14.5 | 0.00 | 0.71 | 0.10 | 32 | 1005.6 |
| 20260507175520 | 17 | 275 | 3.2 | 16.1 | 0.00 | 0.71 | 0.10 | 32 | 1005.7 |
| 20260507175018 | 16 | 290 | 3.2 | 16.1 | 0.00 | 0.71 | 0.10 | 35 | 1005.6 |
| 20260507174559 | 17 | 278 | 4.8 | 16.1 | 0.00 | 0.71 | 0.10 | 32 | 1005.7 |
| 20260507174016 | 17 | 231 | 4.8 | 16.1 | 0.00 | 0.71 | 0.10 | 32 | 1005.7 |
| 20260507173517 | 17 | 293 | 6.4 | 16.1 | 0.00 | 0.71 | 0.10 | 32 | 1005.6 |
| 20260507173036 | 17 | 286 | 3.2 | 14.5 | 0.00 | 0.71 | 0.10 | 34 | 1005.5 |
| 20260507172517 | 17 | 314 | 3.2 | 17.7 | 0.00 | 0.71 | 0.10 | 36 | 1005.6 |
| 20260507172017 | 17 | 360 | 4.8 | 17.7 | 0.00 | 0.71 | 0.10 | 34 | 1005.6 |
| 20260507171533 | 17 | 340 | 4.8 | 12.9 | 0.00 | 0.71 | 0.10 | 35 | 1005.7 |
| 20260507171018 | 17 | 31 | 3.2 | 16.1 | 0.00 | 0.71 | 0.10 | 40 | 1005.8 |
| 20260507170517 | 16 | 352 | 1.6 | 16.1 | 0.00 | 0.71 | 0.10 | 38 | 1005.9 |
| 20260507170031 | 16 | 258 | 3.2 | 14.5 | 0.00 | 0.71 | 0.10 | 38 | 1005.9 |
| 20260507165517 | 16 | 24 | 3.2 | 14.5 | 0.00 | 0.71 | 0.10 | 36 | 1006.2 |
| 20260507165018 | 17 | 273 | 3.2 | 12.9 | 0.00 | 0.71 | 0.10 | 38 | 1006.2 |
| 20260507164534 | 16 | 0 | 3.2 | 17.7 | 0.00 | 0.71 | 0.10 | 36 | 1006.2 |
| 20260507164018 | 16 | 352 | 4.8 | 22.5 | 0.00 | 0.71 | 0.10 | 41 | 1006.2 |
| 20260507163517 | 16 | 269 | 3.2 | 22.5 | 0.00 | 0.71 | 0.10 | 40 | 1006.4 |
| 20260507163035 | 16 | 296 | 6.4 | 22.5 | 0.00 | 0.71 | 0.10 | 39 | 1006.4 |
| 20260507162515 | 16 | 205 | 3.2 | 12.9 | 0.00 | 0.71 | 0.10 | 45 | 1006.5 |
| 20260507162021 | 16 | 16 | 3.2 | 12.9 | 0.00 | 0.71 | 0.10 | 46 | 1006.4 |
| 20260507161535 | 16 | 297 | 3.2 | 14.5 | 0.00 | 0.71 | 0.10 | 49 | 1006.6 |
| 20260507161017 | 16 | 338 | 6.4 | 14.5 | 0.00 | 0.71 | 0.10 | 50 | 1006.5 |
| 20260507160516 | 16 | 291 | 3.2 | 14.5 | 0.00 | 0.71 | 0.10 | 50 | 1006.6 |
| 20260507160038 | 16 | 285 | 3.2 | 19.3 | 0.00 | 0.71 | 0.10 | 51 | 1006.6 |
| 20260507155517 | 16 | 287 | 4.8 | 19.3 | 0.00 | 0.71 | 0.10 | 49 | 1006.6 |
| 20260507155016 | 16 | 324 | 4.8 | 16.1 | 0.00 | 0.71 | 0.10 | 50 | 1006.6 |
| 20260507154534 | 15 | 315 | 4.8 | 14.5 | 0.00 | 0.71 | 0.10 | 50 | 1006.6 |
| 20260507154017 | 15 | 352 | 4.8 | 14.5 | 0.00 | 0.71 | 0.10 | 50 | 1006.6 |
| 20260507153518 | 15 | 347 | 3.2 | 9.7 | 0.00 | 0.71 | 0.10 | 53 | 1006.6 |
| 20260507153036 | 15 | 278 | 3.2 | 14.5 | 0.00 | 0.71 | 0.10 | 52 | 1006.8 |
| 20260507152519 | 15 | 303 | 1.6 | 14.5 | 0.00 | 0.71 | 0.10 | 56 | 1006.8 |
| 20260507152018 | 15 | 300 | 4.8 | 14.5 | 0.00 | 0.71 | 0.10 | 53 | 1007.0 |
| 20260507151532 | 15 | 273 | 4.8 | 14.5 | 0.00 | 0.71 | 0.10 | 53 | 1007.0 |
| 20260507151018 | 15 | 302 | 3.2 | 14.5 | 0.00 | 0.71 | 0.10 | 53 | 1007.0 |
| 20260507150518 | 15 | 274 | 1.6 | 9.7 | 0.00 | 0.71 | 0.10 | 51 | 1007.1 |
| 20260507150033 | 15 | 273 | 1.6 | 11.3 | 0.00 | 0.71 | 0.10 | 53 | 1007.1 |
| 20260507145518 | 15 | 199 | 4.8 | 11.3 | 0.00 | 0.71 | 0.10 | 50 | 1007.1 |
| 20260507145017 | 15 | 250 | 1.6 | 9.7 | 0.00 | 0.71 | 0.10 | 54 | 1007.2 |
| 20260507144535 | 15 | 5 | 4.8 | 9.7 | 0.00 | 0.71 | 0.10 | 52 | 1007.3 |
| 20260507144018 | 15 | 332 | 4.8 | 11.3 | 0.00 | 0.71 | 0.10 | 50 | 1007.4 |
| 20260507143515 | 15 | 178 | 3.2 | 16.1 | 0.00 | 0.71 | 0.10 | 48 | 1007.3 |
| 20260507143033 | 16 | 289 | 4.8 | 17.7 | 0.00 | 0.71 | 0.10 | 48 | 1007.3 |
| 20260507142520 | 15 | 113 | 3.2 | 17.7 | 0.00 | 0.71 | 0.10 | 49 | 1007.2 |
| 20260507142017 | 15 | 322 | 4.8 | 17.7 | 0.00 | 0.71 | 0.10 | 50 | 1007.3 |
| 20260507141536 | 15 | 317 | 3.2 | 11.3 | 0.00 | 0.71 | 0.10 | 49 | 1007.3 |
| 20260507141018 | 15 | 302 | 3.2 | 11.3 | 0.00 | 0.71 | 0.10 | 52 | 1007.3 |
| 20260507140517 | 15 | 198 | 3.2 | 9.7 | 0.00 | 0.71 | 0.10 | 52 | 1007.3 |
| 20260507140047 | 15 | 336 | 3.2 | 9.7 | 0.00 | 0.71 | 0.10 | 53 | 1007.3 |
| 20260507135520 | 15 | 0 | 1.6 | 6.4 | 0.00 | 0.71 | 0.10 | 53 | 1007.2 |
| 20260507135021 | 15 | 276 | 1.6 | 6.4 | 0.00 | 0.71 | 0.10 | 55 | 1007.1 |
| 20260507134535 | 15 | 306 | 1.6 | 6.4 | 0.00 | 0.71 | 0.10 | 57 | 1007.1 |
| 20260507134023 | 14 | 360 | 1.6 | 4.8 | 0.00 | 0.71 | 0.10 | 57 | 1007.2 |
| 20260507133522 | 14 | 263 | 1.6 | 6.4 | 0.00 | 0.71 | 0.10 | 59 | 1007.3 |
| 20260507133034 | 13 | 340 | 1.6 | 8.0 | 0.00 | 0.71 | 0.10 | 59 | 1007.3 |
| 20260507132519 | 13 | 245 | 1.6 | 9.7 | 0.00 | 0.71 | 0.10 | 61 | 1007.5 |
| 20260507132020 | 13 | 209 | 3.2 | 9.7 | 0.00 | 0.71 | 0.10 | 61 | 1007.6 |
| 20260507131541 | 13 | 268 | 3.2 | 11.3 | 0.00 | 0.71 | 0.10 | 62 | 1007.6 |
| 20260507131018 | 13 | 349 | 1.6 | 11.3 | 0.00 | 0.71 | 0.10 | 63 | 1007.7 |
| 20260507130517 | 13 | 46 | 3.2 | 11.3 | 0.00 | 0.71 | 0.10 | 64 | 1007.6 |
| 20260507130034 | 12 | 308 | 1.6 | 9.7 | 0.00 | 0.71 | 0.10 | 65 | 1007.7 |
| 20260507125517 | 12 | 98 | 1.6 | 9.7 | 0.00 | 0.71 | 0.10 | 66 | 1007.7 |
| 20260507125019 | 12 | 18 | 1.6 | 11.3 | 0.00 | 0.71 | 0.10 | 67 | 1007.8 |
| 20260507124534 | 12 | 360 | 3.2 | 11.3 | 0.00 | 0.71 | 0.10 | 67 | 1007.7 |
| 20260507124021 | 12 | 338 | 3.2 | 11.3 | 0.00 | 0.71 | 0.10 | 69 | 1007.8 |
| 20260507123519 | 11 | 281 | 4.8 | 11.3 | 0.00 | 0.71 | 0.10 | 71 | 1007.7 |
| 20260507123036 | 11 | 305 | 3.2 | 9.7 | 0.00 | 0.71 | 0.10 | 74 | 1007.7 |
| 20260507122517 | 11 | 295 | 1.6 | 8.0 | 0.00 | 0.71 | 0.10 | 74 | 1007.8 |
| 20260507122018 | 11 | 312 | 3.2 | 8.0 | 0.00 | 0.71 | 0.10 | 75 | 1007.8 |
| 20260507121535 | 10 | 277 | 1.6 | 8.0 | 0.00 | 0.71 | 0.10 | 76 | 1007.7 |
| 20260507121018 | 10 | 306 | 1.6 | 8.0 | 0.00 | 0.71 | 0.10 | 77 | 1007.9 |
| 20260507120518 | 10 | 306 | 1.6 | 9.7 | 0.00 | 0.71 | 0.10 | 78 | 1007.9 |
| 20260507120035 | 10 | 333 | 1.6 | 9.7 | 0.00 | 0.71 | 0.10 | 80 | 1007.8 |
| 20260507115523 | 10 | 0 | 1.6 | 4.8 | 0.00 | 0.71 | 0.10 | 80 | 1007.9 |
| 20260507115023 | 10 | 326 | 1.6 | 6.4 | 0.00 | 0.71 | 0.10 | 80 | 1007.8 |
| 20260507114535 | 10 | 319 | 1.6 | 9.7 | 0.00 | 0.71 | 0.10 | 80 | 1007.6 |
| 20260507114019 | 10 | 295 | 1.6 | 9.7 | 0.00 | 0.71 | 0.10 | 80 | 1007.8 |
| 20260507113519 | 10 | 288 | 1.6 | 9.7 | 0.00 | 0.71 | 0.10 | 80 | 1007.8 |
| 20260507113034 | 9 | 0 | 1.6 | 4.8 | 0.00 | 0.71 | 0.10 | 81 | 1007.7 |
| 20260507112517 | 9 | 294 | 1.6 | 4.8 | 0.00 | 0.71 | 0.10 | 81 | 1007.6 |
| 20260507112019 | 9 | 321 | 0.0 | 3.2 | 0.00 | 0.71 | 0.10 | 81 | 1007.4 |
| 20260507111544 | 9 | 311 | 0.0 | 3.2 | 0.00 | 0.71 | 0.10 | 81 | 1007.4 |
| 20260507111017 | 9 | 0 | 0.0 | 6.4 | 0.00 | 0.71 | 0.10 | 81 | 1007.5 |
| 20260507110520 | 9 | 328 | 0.0 | 6.4 | 0.00 | 0.71 | 0.10 | 81 | 1007.5 |
| 20260507110035 | 9 | 290 | 1.6 | 6.4 | 0.00 | 0.71 | 0.10 | 81 | 1007.7 |
| 20260507105516 | 9 | 335 | 1.6 | 9.7 | 0.00 | 0.71 | 0.10 | 82 | 1007.7 |
| 20260507105018 | 9 | 314 | 1.6 | 9.7 | 0.00 | 0.71 | 0.10 | 82 | 1007.6 |
| 20260507104536 | 9 | 278 | 1.6 | 9.7 | 0.00 | 0.71 | 0.10 | 82 | 1007.4 |
| 20260507104017 | 9 | 0 | 0.0 | 6.4 | 0.00 | 0.71 | 0.10 | 82 | 1007.1 |
| 20260507103517 | 9 | 333 | 1.6 | 6.4 | 0.00 | 0.71 | 0.10 | 83 | 1007.2 |
| 20260507103035 | 8 | 280 | 1.6 | 9.7 | 0.00 | 0.71 | 0.10 | 83 | 1006.9 |
| 20260507102518 | 9 | 0 | 1.6 | 9.7 | 0.00 | 0.71 | 0.10 | 83 | 1007.0 |
| 20260507102018 | 9 | 307 | 0.0 | 12.9 | 0.00 | 0.71 | 0.10 | 84 | 1006.9 |
| 20260507101553 | 9 | 323 | 3.2 | 12.9 | 0.00 | 0.71 | 0.10 | 84 | 1006.9 |
| 20260507101019 | 9 | 287 | 1.6 | 8.0 | 0.00 | 0.71 | 0.10 | 84 | 1007.0 |
| 20260507100519 | 9 | 337 | 3.2 | 9.7 | 0.00 | 0.71 | 0.10 | 84 | 1007.0 |
| 20260507100034 | 9 | 290 | 1.6 | 9.7 | 0.00 | 0.71 | 0.10 | 84 | 1006.8 |
| 20260507095517 | 9 | 295 | 1.6 | 4.8 | 0.00 | 0.71 | 0.10 | 84 | 1006.8 |
| 20260507095019 | 9 | 0 | 0.0 | 4.8 | 0.00 | 0.71 | 0.10 | 84 | 1007.1 |
| 20260507094536 | 9 | 296 | 1.6 | 4.8 | 0.00 | 0.71 | 0.10 | 84 | 1007.3 |
| 20260507094018 | 9 | 319 | 1.6 | 4.8 | 0.00 | 0.71 | 0.10 | 85 | 1007.1 |
| 20260507093521 | 9 | 0 | 1.6 | 4.8 | 0.00 | 0.71 | 0.10 | 85 | 1006.8 |
| 20260507093035 | 9 | 316 | 1.6 | 8.0 | 0.00 | 0.71 | 0.10 | 85 | 1007.3 |
| 20260507092523 | 9 | 311 | 1.6 | 8.0 | 0.00 | 0.71 | 0.10 | 85 | 1007.0 |
| 20260507092017 | 10 | 0 | 0.0 | 4.8 | 0.00 | 0.71 | 0.10 | 85 | 1007.2 |
| 20260507091551 | 10 | 0 | 0.0 | 6.4 | 0.00 | 0.71 | 0.10 | 85 | 1007.2 |
| 20260507091018 | 10 | 279 | 1.6 | 6.4 | 0.00 | 0.71 | 0.10 | 85 | 1007.3 |
| 20260507090518 | 10 | 296 | 1.6 | 6.4 | 0.00 | 0.71 | 0.10 | 85 | 1007.4 |
| 20260507090032 | 10 | 0 | 1.6 | 6.4 | 0.00 | 0.71 | 0.10 | 85 | 1007.2 |
| 20260507085517 | 10 | 286 | 0.0 | 6.4 | 0.03 | 0.71 | 0.10 | 85 | 1007.0 |
| 20260507085018 | 10 | 293 | 1.6 | 6.4 | 0.03 | 0.71 | 0.10 | 84 | 1007.1 |
| 20260507084535 | 10 | 0 | 1.6 | 6.4 | 0.05 | 0.71 | 0.10 | 84 | 1006.8 |
| 20260507084019 | 10 | 0 | 1.6 | 6.4 | 0.05 | 0.71 | 0.10 | 85 | 1006.9 |
| 20260507083517 | 10 | 302 | 1.6 | 6.4 | 0.05 | 0.71 | 0.10 | 85 | 1007.0 |
| 20260507083040 | 10 | 0 | 1.6 | 6.4 | 0.05 | 0.71 | 0.10 | 85 | 1006.9 |
| 20260507082518 | 10 | 286 | 1.6 | 4.8 | 0.05 | 0.71 | 0.10 | 85 | 1006.6 |
| 20260507082019 | 10 | 311 | 0.0 | 3.2 | 0.05 | 0.71 | 0.10 | 84 | 1006.8 |
| 20260507081549 | 10 | 0 | 1.6 | 3.2 | 0.05 | 0.71 | 0.10 | 84 | 1006.9 |
| 20260507081017 | 10 | 350 | 0.0 | 3.2 | 0.05 | 0.71 | 0.10 | 84 | 1006.8 |
| 20260507080518 | 10 | 5 | 0.0 | 4.8 | 0.05 | 0.71 | 0.10 | 84 | 1006.8 |
| 20260507080040 | 10 | 33 | 0.0 | 6.4 | 0.03 | 0.69 | 0.08 | 84 | 1006.9 |
| 20260507075519 | 10 | 262 | 1.6 | 12.9 | 0.03 | 0.69 | 0.08 | 84 | 1007.1 |
| 20260507075017 | 10 | 345 | 1.6 | 12.9 | 0.03 | 0.69 | 0.08 | 84 | 1006.8 |
| 20260507074538 | 10 | 273 | 3.2 | 11.3 | 0.00 | 0.66 | 0.05 | 84 | 1006.9 |
| 20260507074019 | 10 | 304 | 1.6 | 9.7 | 0.00 | 0.66 | 0.05 | 84 | 1007.1 |
| 20260507073519 | 10 | 309 | 1.6 | 9.7 | 0.00 | 0.66 | 0.05 | 84 | 1006.9 |
| 20260507073049 | 10 | 296 | 1.6 | 4.8 | 0.00 | 0.66 | 0.05 | 85 | 1006.7 |
| 20260507072519 | 10 | 284 | 1.6 | 6.4 | 0.00 | 0.66 | 0.05 | 85 | 1006.5 |
| 20260507072022 | 10 | 289 | 0.0 | 6.4 | 0.00 | 0.66 | 0.05 | 85 | 1006.4 |
| 20260507071535 | 10 | 344 | 1.6 | 6.4 | 0.00 | 0.66 | 0.05 | 86 | 1006.3 |
| 20260507071018 | 11 | 0 | 0.0 | 6.4 | 0.00 | 0.66 | 0.05 | 86 | 1006.1 |
| 20260507070519 | 11 | 296 | 1.6 | 6.4 | 0.00 | 0.66 | 0.05 | 86 | 1006.5 |
| 20260507070039 | 11 | 277 | 1.6 | 6.4 | 0.00 | 0.66 | 0.05 | 86 | 1006.1 |
| 20260507065517 | 11 | 0 | 1.6 | 6.4 | 0.00 | 0.66 | 0.05 | 86 | 1006.0 |
| 20260507065015 | 11 | 325 | 1.6 | 6.4 | 0.00 | 0.66 | 0.05 | 87 | 1006.1 |
| 20260507064535 | 11 | 327 | 0.0 | 3.2 | 0.00 | 0.66 | 0.05 | 87 | 1006.2 |
| 20260507064018 | 11 | 298 | 0.0 | 3.2 | 0.00 | 0.66 | 0.05 | 87 | 1006.1 |
| 20260507063518 | 11 | 0 | 0.0 | 4.8 | 0.00 | 0.66 | 0.05 | 87 | 1006.1 |
| 20260507063033 | 11 | 304 | 0.0 | 4.8 | 0.00 | 0.66 | 0.05 | 87 | 1006.2 |
| 20260507062520 | 11 | 322 | 0.0 | 6.4 | 0.00 | 0.66 | 0.05 | 87 | 1006.0 |
| 20260507062017 | 11 | 250 | 0.0 | 8.0 | 0.00 | 0.66 | 0.05 | 87 | 1005.9 |
| 20260507061534 | 11 | 288 | 1.6 | 8.0 | 0.00 | 0.66 | 0.05 | 87 | 1005.9 |
| 20260507061017 | 11 | 307 | 1.6 | 8.0 | 0.00 | 0.66 | 0.05 | 87 | 1006.1 |
| 20260507060519 | 11 | 344 | 0.0 | 4.8 | 0.00 | 0.66 | 0.05 | 87 | 1005.9 |
| 20260507060036 | 11 | 0 | 0.0 | 3.2 | 0.00 | 0.66 | 0.05 | 87 | 1006.0 |
| 20260507055517 | 11 | 0 | 0.0 | 6.4 | 0.00 | 0.66 | 0.05 | 87 | 1006.2 |
| 20260507055021 | 11 | 0 | 0.0 | 9.7 | 0.00 | 0.66 | 0.05 | 87 | 1006.1 |
| 20260507054536 | 11 | 292 | 0.0 | 11.3 | 0.00 | 0.66 | 0.05 | 87 | 1006.3 |
| 20260507054020 | 11 | 347 | 1.6 | 11.3 | 0.00 | 0.66 | 0.05 | 87 | 1006.8 |
| 20260507053518 | 11 | 302 | 1.6 | 11.3 | 0.00 | 0.66 | 0.05 | 87 | 1006.4 |
| 20260507053031 | 12 | 281 | 0.0 | 6.4 | 0.00 | 0.66 | 0.05 | 87 | 1006.2 |
| 20260507052518 | 12 | 288 | 1.6 | 6.4 | 0.00 | 0.66 | 0.05 | 87 | 1006.3 |
| 20260507052020 | 12 | 309 | 1.6 | 4.8 | 0.00 | 0.66 | 0.05 | 87 | 1006.4 |
| 20260507051535 | 12 | 5 | 1.6 | 6.4 | 0.00 | 0.66 | 0.05 | 87 | 1006.3 |
| 20260507051017 | 12 | 273 | 1.6 | 9.7 | 0.03 | 0.66 | 0.05 | 87 | 1006.6 |
| 20260507050518 | 12 | 284 | 1.6 | 9.7 | 0.03 | 0.66 | 0.05 | 88 | 1006.3 |
| 20260507050034 | 12 | 272 | 1.6 | 14.5 | 0.05 | 0.66 | 0.05 | 87 | 1006.3 |
| 20260507045519 | 12 | 338 | 1.6 | 14.5 | 0.05 | 0.66 | 0.05 | 88 | 1006.5 |
| 20260507045021 | 13 | 255 | 1.6 | 12.9 | 0.05 | 0.66 | 0.05 | 88 | 1006.7 |
| 20260507044544 | 13 | 302 | 1.6 | 12.9 | 0.05 | 0.66 | 0.05 | 88 | 1006.3 |
| 20260507044020 | 13 | 329 | 1.6 | 9.7 | 0.05 | 0.66 | 0.05 | 88 | 1006.1 |
| 20260507043518 | 13 | 254 | 1.6 | 11.3 | 0.05 | 0.66 | 0.05 | 88 | 1006.0 |
| 20260507043040 | 13 | 313 | 1.6 | 11.3 | 0.05 | 0.66 | 0.05 | 88 | 1006.1 |
| 20260507042520 | 13 | 313 | 1.6 | 6.4 | 0.05 | 0.66 | 0.05 | 89 | 1006.0 |
| 20260507042019 | 13 | 295 | 1.6 | 6.4 | 0.05 | 0.66 | 0.05 | 88 | 1006.0 |
| 20260507041536 | 14 | 288 | 1.6 | 6.4 | 0.05 | 0.66 | 0.05 | 89 | 1006.2 |
| 20260507041018 | 14 | 278 | 1.6 | 6.4 | 0.03 | 0.64 | 0.03 | 89 | 1006.2 |
| 20260507040516 | 14 | 284 | 1.6 | 8.0 | 0.03 | 0.64 | 0.03 | 89 | 1006.3 |
| 20260507040035 | 14 | 292 | 1.6 | 9.7 | 0.00 | 0.61 | 0.00 | 89 | 1006.1 |
| 20260507035518 | 14 | 0 | 1.6 | 9.7 | 0.00 | 0.61 | 0.61 | 90 | 1006.1 |
| 20260507035017 | 14 | 311 | 1.6 | 6.4 | 0.00 | 0.61 | 0.61 | 90 | 1005.8 |
| 20260507034533 | 14 | 286 | 1.6 | 8.0 | 0.00 | 0.61 | 0.61 | 90 | 1005.7 |
| 20260507034019 | 15 | 284 | 3.2 | 8.0 | 0.00 | 0.61 | 0.61 | 90 | 1005.7 |
| 20260507033519 | 15 | 273 | 1.6 | 6.4 | 0.00 | 0.61 | 0.61 | 90 | 1005.6 |
| 20260507033033 | 15 | 269 | 1.6 | 6.4 | 0.00 | 0.61 | 0.61 | 91 | 1005.7 |
| 20260507032521 | 15 | 264 | 1.6 | 9.7 | 0.00 | 0.61 | 0.61 | 91 | 1005.4 |
| 20260507032019 | 15 | 294 | 1.6 | 9.7 | 0.00 | 0.61 | 0.61 | 91 | 1005.2 |
| 20260507031533 | 15 | 269 | 0.0 | 8.0 | 0.00 | 0.61 | 0.61 | 91 | 1005.1 |
| 20260507031017 | 15 | 0 | 0.0 | 8.0 | 0.00 | 0.61 | 0.61 | 91 | 1005.1 |
| 20260507030519 | 15 | 289 | 1.6 | 8.0 | 0.00 | 0.61 | 0.61 | 91 | 1004.9 |
| 20260507030040 | 15 | 0 | 3.2 | 6.4 | 0.00 | 0.61 | 0.61 | 91 | 1004.7 |
| 20260507025518 | 15 | 315 | 1.6 | 8.0 | 0.00 | 0.61 | 0.61 | 91 | 1004.7 |
| 20260507025017 | 15 | 270 | 0.0 | 8.0 | 0.00 | 0.61 | 0.61 | 91 | 1004.8 |
| 20260507024535 | 15 | 176 | 1.6 | 8.0 | 0.00 | 0.61 | 0.61 | 91 | 1004.9 |
| 20260507024016 | 15 | 132 | 1.6 | 8.0 | 0.00 | 0.61 | 0.61 | 91 | 1004.9 |
| 20260507023518 | 15 | 296 | 1.6 | 8.0 | 0.00 | 0.61 | 0.61 | 91 | 1004.9 |
| 20260507023034 | 15 | 223 | 1.6 | 8.0 | 0.00 | 0.61 | 0.61 | 91 | 1005.0 |
| 20260507022519 | 15 | 244 | 1.6 | 8.0 | 0.00 | 0.61 | 0.61 | 91 | 1004.9 |
| 20260507022018 | 15 | 301 | 0.0 | 6.4 | 0.00 | 0.61 | 0.61 | 90 | 1004.8 |
| 20260507021531 | 15 | 309 | 1.6 | 8.0 | 0.00 | 0.61 | 0.61 | 91 | 1004.7 |
| 20260507021017 | 15 | 217 | 1.6 | 8.0 | 0.00 | 0.61 | 0.61 | 91 | 1004.7 |
| 20260507020517 | 15 | 301 | 1.6 | 14.5 | 0.00 | 0.61 | 0.61 | 91 | 1004.7 |
| 20260507020035 | 15 | 0 | 3.2 | 14.5 | 0.00 | 0.61 | 0.61 | 91 | 1004.7 |
| 20260507015518 | 15 | 0 | 0.0 | 8.0 | 0.00 | 0.61 | 0.61 | 91 | 1005.0 |
| 20260507015019 | 15 | 175 | 0.0 | 8.0 | 0.00 | 0.61 | 0.61 | 91 | 1004.9 |
| 20260507014537 | 15 | 210 | 1.6 | 9.7 | 0.00 | 0.61 | 0.61 | 91 | 1005.1 |
| 20260507014017 | 15 | 352 | 1.6 | 9.7 | 0.03 | 0.61 | 0.61 | 91 | 1005.0 |
| 20260507013518 | 15 | 245 | 1.6 | 9.7 | 0.03 | 0.61 | 0.61 | 91 | 1005.1 |
| 20260507013035 | 15 | 162 | 1.6 | 11.3 | 0.03 | 0.61 | 0.61 | 91 | 1004.9 |
| 20260507012521 | 15 | 150 | 3.2 | 11.3 | 0.03 | 0.61 | 0.61 | 91 | 1005.1 |
| 20260507012021 | 15 | 103 | 0.0 | 9.7 | 0.03 | 0.61 | 0.61 | 91 | 1005.0 |
| 20260507011535 | 15 | 352 | 1.6 | 8.0 | 0.03 | 0.61 | 0.61 | 90 | 1005.1 |
| 20260507011020 | 15 | 222 | 1.6 | 8.0 | 0.03 | 0.61 | 0.61 | 91 | 1005.2 |
| 20260507010523 | 15 | 181 | 1.6 | 11.3 | 0.03 | 0.61 | 0.61 | 91 | 1005.1 |
| 20260507010036 | 15 | 251 | 1.6 | 11.3 | 0.03 | 0.61 | 0.61 | 90 | 1005.3 |
| 20260507005524 | 15 | 15 | 1.6 | 6.4 | 0.03 | 0.61 | 0.61 | 90 | 1005.2 |
| 20260507005020 | 15 | 304 | 1.6 | 12.9 | 0.03 | 0.61 | 0.61 | 90 | 1005.1 |